Regional Weather Roundup
Issued by NWS

Home | Current Version | Previous Version | Graphics & Text | Print | Product List | Glossary On
Versions: 1 2 3 4 5 6 7 8 9 10 11 12 13 14 15 16 17 18 19 20 21 22 23 24 25 26 27 28 29 30 31 32 33 34 35 36 37 38 39 40 41 42 43 44 45 46 47 48 49 50
000
ASUS43 KMKX 242217
RWRWI

WISCONSIN REGIONAL WEATHER ROUNDUP
NATIONAL WEATHER SERVICE MILWAUKEE/SULLIVAN WI
500 PM CDT SUN MAY 24 2015

NOTE: "FAIR" INDICATES FEW OR NO CLOUDS BELOW 12,000 FEET WITH NO
SIGNIFICANT WEATHER AND/OR OBSTRUCTIONS TO VISIBILITY.

WIZ001-002-006>008-014>016-023>028-242300-
NORTHWEST WISCONSIN

CITY           SKY/WX    TMP DP  RH WIND       PRES   REMARKS
SUPERIOR ARPT  CLOUDY    66  45  47 S7        29.97S
ASHLAND        CLOUDY    71  49  45 E6        29.97F
HAYWARD        LGT RAIN  62  57  83 S3        30.00F
SIREN          LGT RAIN  61  56  85 CALM      29.99F
CUMBERLAND     LGT RAIN  59  55  88 E8        29.98F
RICE LAKE      RAIN      60  57  87 E7        29.99F
CHETEK         LGT RAIN  60  58  94 E7        29.97F
LADYSMITH      LGT RAIN  60  58  91 SE6       30.02F
EAU CLAIRE     RAIN      59  56  89 E12       29.95F FOG
MENOMONIE      LGT RAIN  60  58  94 E10       29.95F
NEW RICHMOND   LGT RAIN  60  59  97 E10       29.95F
OSCEOLA        LGT RAIN  60  60 100 E7        29.97F
$$

WIZ003>005-009-010-017-018-242300-
NORTH CENTRAL WISCONSIN

CITY           SKY/WX    TMP DP  RH WIND       PRES   REMARKS
MANITOWISH WTR CLOUDY    66  52  60 S13       30.01F
ARBOR VITAE    CLOUDY    63  53  70 S14       30.03F
WOODRUFF       CLOUDY    63  53  70 S14       30.03F
RHINELANDER    LGT RAIN  60  57  89 S6        30.05F
EAGLE RIVER    CLOUDY    67  50  54 SW12G17   30.03F
LAND O LAKES   CLOUDY    74  43  33 S8        30.02F
PHILLIPS       LGT RAIN  60  56  87 SE7       30.02F
TOMAHAWK       LGT RAIN  58  56  91 SE5       30.05F
MEDFORD        DRIZZLE   57  55  94 E9        30.01F
MERRILL        LGT RAIN  58  57  96 SE6       30.05F
$$

WIZ029-030-035-036-043>047-242300-
CENTRAL WISCONSIN

CITY           SKY/WX    TMP DP  RH WIND       PRES   REMARKS
WAUSAU         LGT RAIN  59  56  89 SE13      30.01F
MOSINEE        LGT RAIN  57  57 100 E10       30.03F
MARSHFIELD     HVY RAIN  58  55  90 SE10      30.01S FOG
STEVENS POINT  LGT RAIN  56  55  96 E9        30.03F
WAUPACA        RAIN      61  59  93 E7        30.05F
WAUTOMA        RAIN      59  59 100 E8        30.03F FOG
WISC RAPIDS    RAIN      58  55  90 SE8       30.03F FOG
CAMP DOUGLAS   LGT RAIN  59  59 100 E13       29.97F FOG
$$

WIZ011>013-019>022-031-037>040-048>050-242300-
NORTHEAST WISCONSIN

CITY           SKY/WX    TMP DP  RH WIND       PRES   REMARKS
ANTIGO         LGT RAIN  57  55  93 SE8       30.06F
SHAWANO        DRIZZLE   62  58  86 SE3       30.06F
OCONTO         CLOUDY    60  58  92 S3        30.07F
STURGEON BAY   CLOUDY    59  52  77 S8        30.11S
GREEN BAY      LGT RAIN  62  58  86 SE7       30.06F FOG
MANITOWOC      LGT RAIN  54  52  94 SE13      30.09F FOG
APPLETON       LGT RAIN  59  57  94 E9        30.05F
CLINTONVILLE   LGT RAIN  61  57  88 E6        30.04F
OSHKOSH        RAIN      58  55  90 SE12      30.03F FOG
$$

WIZ032>034-041-042-053>061-242300-
SOUTHWEST WISCONSIN

CITY           SKY/WX    TMP DP  RH WIND       PRES   REMARKS
LA CROSSE      LGT RAIN  61  57  87 SE7G18    29.91F
SPARTA         LGT RAIN  58  56  94 E14       29.95F
VIROQUA        CLOUDY    58  58 100 E20G25    29.94F
BOSCOBEL       LGT RAIN  61  58  90 E5        29.95F
PRAIRIE DU CHI CLOUDY    61  58  89 E14G20    29.90F
PLATTEVILLE    CLOUDY    61  59  95 E9        29.94F
$$

WIZ056-057-062-063-064-067-068-242300-
SOUTH CENTRAL WISCONSIN

CITY           SKY/WX    TMP DP  RH WIND       PRES   REMARKS
REEDSBURG      RAIN      57  56  96 E5        29.98F
BARABOO/DELLS  HVY RAIN  57  54  91 E9        29.99F
LONE ROCK      LGT RAIN  59  55  88 E12       29.96F FOG
MINERAL POINT  LGT RAIN  59  59 100 E6        29.95F
MADISON        LGT RAIN  59  55  87 E16       29.97F
MIDDLETON      CLOUDY    61  58  92 E13G18    29.98F
WATERTOWN      LGT RAIN  57  57 100 E13G21    30.01F
MONROE         CLOUDY    61  59  94 E12G17    29.95F
JANESVILLE     LGT RAIN  64  55  72 E17G23    29.97F
$$

WIZ051-052-058>065-066-070>072-242300-
SOUTHEAST WISCONSIN

CITY           SKY/WX    TMP DP  RH WIND       PRES   REMARKS
MILWAUKEE      LGT RAIN  52  48  86 NE5       30.05S FOG
WAUKESHA       LGT RAIN  54  52  94 E12       30.06S FOG
MILWAUKEE/TIMM NOT AVBL
RACINE         LGT RAIN  56  49  77 VRB6      30.06S
BURLINGTON     RAIN      56  54  90 E5        30.04F
KENOSHA        LGT RAIN  58  53  84 E3        30.04S
FOND DU LAC    RAIN      58  54  86 SE10      30.04F FOG
SHEBOYGAN      RAIN      56  54  93 E5        30.08R FOG
WEST BEND      RAIN      55  54  94 E7        30.07R
JUNEAU         LGT RAIN  57  54  89 E16       30.04F
$$

LSZ147-162-242300-
LAKE SUPERIOR

STATION/POSITION TIME  TEMP    WIND        PRES    WAVE
                       AIR SEA DIR/SP/G            HT/PER
                 (UTC) (F)     (DEG/KT/KT) (MB)    (FT/S)
W MID LAKE BUOY  2050   49 37   60/  2/  4   N/A     0
DEVILS ISLAND    2100   67      90/  3/  3   N/A
PORT WING        2100   54      10/  8/ 10   N/A
SAXON HARBOR     2140   60        CALM       N/A
$$

LMZ867-665-643>646-242300-
LAKE MICHIGAN

STATION/POSITION TIME  TEMP    WIND        PRES    WAVE
                       AIR SEA DIR/SP/G            HT/PER
                 (UTC) (F)     (DEG/KT/KT) (MB)    (FT/S)
CHAMBERS ISLAND  2100   62     210/  7/ 19   N/A
N MID LAKE BUOY  2050   42 36  190/ 12/ 12   N/A     1
NORTHPORT PIER   2100   65     160/  6/ 12   N/A
SISTER BAY       2103   64     180/ 11/ 13   N/A
KEWAUNEE LAKESHO 2100   52     160/  2/  5   N/A
SHEBOYGAN LAKESH 2100   47      90/  3/  4   N/A
PORT WASHINGTON  2140   49      30/  9/ 11   N/A
ATWATER BUOY     2100   50 47   60/  6/  8   N/A
MILWAUKEE LAKESH 2100   50      40/  3/  4   N/A
S MID LAKE BUOY  2050   46 38   70/ 12/ 14   N/A     0
$$

TC  - TEMPERATURE IN CELSIUS
VSB - VISIBILITY IN STATUTE MILES
WCI - WIND CHILL INDEX
HX  - HEAT INDEX



USA.gov is the U.S. government's official web portal to all federal, state and local government web resources and services.